Location: Ellingshausen
(50.5460°N, 10.4723°E)
Time: 00:22:27
(UTC+00:00)

CZ-2C R/B - Pass Details

Date: 18 January 2026
Orbit: 662 x 774 km, 98.4° (Epoch: 18 February)

Event Time Altitude Azimuth Distance (km) Brightness Sun altitude
Rises 05:05:27 0° 4° (N) 3,041 5.6 -19.3°
Reaches altitude 10° 05:08:15 10° 347° (NNW) 2,109 4.6 -18.9°
Enters shadow 05:08:27 11° 345° (NNW) 2,052 4.5 -18.8°
